Flag for Switzerland Weather past 2 weeks in Biel, Switzerland

Now
56 °F

Cool.


Feels Like: 56 °F
Forecast: 39 / 69 °F
Wind: 2 mph from West

Location: Grenchen


UV Index: 3 (Moderate)

Visibility: N/A


Pressure: 30.11 "Hg

Humidity: 77%

Dew point: 49 °F

Location of BielLocation

Historic Weather in Biel

°F

Biel temperature yesterday

Maximum temperature yesterday: 70 °F (at 5:00 PM)
Minimum temperature yesterday: 47 °F (at 6:00 AM)
Average temperature yesterday: 59 °F

Past Weeks' High & Low Weather Summary

 TemperatureHumidityPressure
High70 °F (Apr 23, 5:00 PM)98% (Apr 19, 2:00 AM)30.37 "Hg (Apr 19, 2:00 AM)
Low31 °F (Apr 16, 7:00 AM)27% (Apr 16, 4:00 PM)29.60 "Hg (Apr 20, 6:00 PM)
Average51 °F67%30.03 "Hg
* Reported Apr 9 2:00 AM — Midnight between Apr 23 and Apr 24, Biel, Weather by CustomWeather, © 2014

Note: Actual official high and low records may vary slightly from our data, if they occured in-between our weather recording intervals... More about our weather records

Advertising

Historic Weather Conditions — Data for Previous 24 hours

 ConditionsComfort  
Time TempWeatherWind HumidityBarometerVisibility
12:00 AM
Apr 24
56 °FCool.2 mph77%30.11 "HgN/A
11:00 PM
Apr 23
59 °FCool.5 mph67%30.10 "HgN/A
10:00 PM61 °FRefreshingly cool.8 mph58%30.07 "HgN/A
9:00 PM62 °FRefreshingly cool.3 mph56%30.03 "HgN/A
8:00 PM65 °FMild.9 mph48%29.99 "HgN/A
7:00 PM67 °FMild.12 mph47%29.97 "HgN/A
6:00 PM68 °FMild.13 mph47%29.97 "HgN/A
5:00 PM70 °FMild.13 mph44%29.97 "HgN/A
4:00 PM70 °FMild.12 mph40%29.98 "HgN/A
3:00 PM69 °FMild.12 mph43%30.00 "HgN/A
2:00 PM68 °FMild.9 mph50%30.02 "HgN/A
1:00 PM66 °FMild.7 mph53%30.04 "HgN/A
12:00 PM63 °FMild.3 mph61%30.07 "HgN/A
11:00 AM60 °FCool.1 mph63%30.09 "HgN/A
10:00 AM56 °FCool.1 mph78%30.11 "HgN/A
9:00 AM53 °FCool.No wind88%30.11 "HgN/A
8:00 AM50 °FCool.1 mph95%30.12 "HgN/A
7:00 AM49 °FCool.3 mph95%30.11 "HgN/A
6:00 AM47 °FCool.3 mph96%30.11 "HgN/A
5:00 AM49 °FCool.1 mph94%30.09 "HgN/A
4:00 AM50 °FCool.2 mph95%30.09 "HgN/A
3:00 AM53 °FCool.2 mph88%30.07 "HgN/A
2:00 AM53 °FCool.2 mph84%30.06 "HgN/A
1:00 AM51 °FCool.2 mph89%30.06 "HgN/A
Weather by CustomWeather, © 2014

See weather overview